Left ArrowRight Arrow

34.02893, -84.19858

Hourly Observations for June 13, 2024

Temp ( °F °C ) Dew Point ( °F °C ) Humidity (%) Winds ( mph kmh ) Pressure ( in mb ) Visibility ( mi km ) Precip ( " mm )
12:53 am 00:53 Cloudy 76 24.4 62 16.7 62 62 Calm 29.92 1013 10 16 0.00 0.00
1:53 am 01:53 Cloudy 76 24.4 61 16.1 60 60 VRB 5 7 29.91 1013 10 16 0.00 0.00
2:53 am 02:53 Mostly Cloudy 75 23.9 62 16.7 64 64 Calm 29.90 1012 10 16 0.00 0.00
3:53 am 03:53 Mostly Clear 73 22.8 62 16.7 68 68 Calm 29.90 1013 10 16 0.00 0.00
4:53 am 04:53 Partly Cloudy 72 22.2 62 16.7 71 71 Calm 29.91 1013 10 16 0.00 0.00
5:53 am 05:53 Mostly Cloudy 70 21.1 62 16.7 76 76 Calm 29.93 1013 10 16 0.00 0.00
6:53 am 06:53 Mostly Cloudy 72 22.2 62 16.7 71 71 Calm 29.95 1014 10 16 0.00 0.00
7:53 am 07:53 Mostly Cloudy 73 22.8 63 17.2 71 71 Calm 29.97 1015 10 16 0.00 0.00
8:53 am 08:53 Partly Cloudy 75 23.9 64 17.8 69 69 E 3 6 29.99 1016 10 16 0.00 0.00
9:53 am 09:53 Sunny 78 25.6 65 18.3 64 64 VRB 5 7 29.99 1016 10 16 0.00 0.00
10:53 am 10:53 Sunny 82 27.8 63 17.2 53 53 undefined N/A 29.98 1015 10 16 0.00 0.00
11:53 am 11:53 Sunny 85 29.4 61 16.1 45 45 VRB 3 6 29.97 1015 10 16 0.00 0.00
12:53 pm 12:53 Sunny 86 30 59 15 40 40 E 6 9 29.97 1015 10 16 0.00 0.00
1:53 pm 13:53 Sunny 86 30 61 16.1 43 43 NNE 6 9 29.96 1015 10 16 0.00 0.00
2:53 pm 14:53 Mostly Sunny 87 30.6 62 16.7 43 43 VRB 3 6 29.94 1014 10 16 0.00 0.00
3:53 pm 15:53 Mostly Cloudy 87 30.6 62 16.7 43 43 VRB 3 6 29.93 1014 10 16 0.00 0.00
4:53 pm 16:53 Mostly Cloudy 86 30 61 16.1 43 43 VRB 3 6 29.92 1013 10 16 0.00 0.00
5:53 pm 17:53 Cloudy 85 29.4 62 16.7 46 46 VRB 3 6 29.92 1013 10 16 0.00 0.00
6:53 pm 18:53 Sunny 87 30.6 61 16.1 42 42 VRB 3 6 29.92 1013 10 16 0.00 0.00
7:53 pm 19:53 Sunny 86 30 62 16.7 45 45 Calm 29.92 1013 10 16 0.00 0.00
8:53 pm 20:53 Clear 79 26.1 62 16.7 56 56 Calm 29.92 1013 10 16 0.00 0.00
9:53 pm 21:53 Clear 76 24.4 63 17.2 64 64 Calm 29.93 1013 10 16 0.00 0.00
10:53 pm 22:53 Clear 76 24.4 62 16.7 62 62 Calm 29.93 1014 10 16 0.00 0.00
11:53 pm 23:53 Clear 73 22.8 62 16.7 68 68 Calm 29.94 1014 10 16 0.00 0.00

Powered by Vaisala Xweather